TimeEST,TemperatureF,Dew PointF,Humidity,Sea Level PressureIn,VisibilityMPH,Wind Direction,Wind SpeedMPH,Gust SpeedMPH,PrecipitationIn,Events,Conditions,WindDirDegrees,DateUTC
12:52 AM,62.1,46.9,58,30.01,10.0,SSW,13.8,-,N/A,,Mostly Cloudy,200,2012-12-05 05:52:00
1:52 AM,57.0,46.9,69,30.00,10.0,SSW,6.9,-,N/A,,Partly Cloudy,200,2012-12-05 06:52:00
2:52 AM,59.0,48.0,67,30.00,10.0,SW,5.8,-,N/A,,Mostly Cloudy,230,2012-12-05 07:52:00
3:52 AM,57.9,48.0,70,30.03,10.0,NNW,8.1,-,N/A,,Mostly Cloudy,340,2012-12-05 08:52:00
4:33 AM,60.8,48.2,63,30.04,10.0,NNW,18.4,24.2,N/A,,Mostly Cloudy,330,2012-12-05 09:33:00
4:52 AM,60.1,46.9,62,30.05,10.0,NNW,11.5,-,N/A,,Mostly Cloudy,340,2012-12-05 09:52:00
5:52 AM,59.0,42.1,53,30.07,10.0,NNW,16.1,24.2,0.00,Rain,Light Rain,340,2012-12-05 10:52:00
6:52 AM,57.0,42.1,57,30.12,10.0,NNW,12.7,-,0.00,Rain,Light Rain,330,2012-12-05 11:52:00
7:52 AM,55.9,41.0,57,30.13,10.0,North,11.5,-,0.00,,Overcast,350,2012-12-05 12:52:00
9:52 AM,55.9,35.1,45,30.17,10.0,NNW,15.0,-,N/A,,Overcast,340,2012-12-05 14:52:00
10:52 AM,55.9,33.1,42,30.17,10.0,NNW,11.5,18.4,N/A,,Mostly Cloudy,330,2012-12-05 15:52:00
11:52 AM,55.9,32.0,40,30.16,10.0,NW,11.5,-,N/A,,Mostly Cloudy,310,2012-12-05 16:52:00
12:52 PM,57.9,33.1,39,30.14,10.0,NNW,11.5,-,N/A,,Mostly Cloudy,330,2012-12-05 17:52:00
1:52 PM,59.0,30.9,35,30.13,10.0,NW,20.7,26.5,N/A,,Scattered Clouds,320,2012-12-05 18:52:00
2:52 PM,59.0,30.0,33,30.13,10.0,WNW,11.5,20.7,N/A,,Scattered Clouds,300,2012-12-05 19:52:00
3:52 PM,57.9,28.9,33,30.15,10.0,NNW,11.5,-,N/A,,Scattered Clouds,330,2012-12-05 20:52:00
4:52 PM,55.0,28.0,35,30.17,10.0,NW,11.5,-,N/A,,Partly Cloudy,310,2012-12-05 21:52:00
5:52 PM,53.1,27.0,37,30.21,10.0,NNW,18.4,27.6,N/A,,Clear,330,2012-12-05 22:52:00
6:52 PM,50.0,28.0,43,30.25,10.0,NNW,15.0,21.9,N/A,,Partly Cloudy,340,2012-12-05 23:52:00
7:52 PM,46.9,26.1,44,30.27,10.0,North,16.1,20.7,N/A,,Scattered Clouds,350,2012-12-06 00:52:00
8:52 PM,46.0,26.1,46,30.29,10.0,NNW,17.3,-,N/A,,Scattered Clouds,340,2012-12-06 01:52:00
9:52 PM,44.1,24.1,45,30.31,10.0,NNW,16.1,25.3,N/A,,Scattered Clouds,340,2012-12-06 02:52:00
10:52 PM,42.1,24.1,49,30.31,10.0,North,16.1,-,N/A,,Scattered Clouds,350,2012-12-06 03:52:00
11:52 PM,39.9,21.9,49,30.32,10.0,North,11.5,-,N/A,,Mostly Cloudy,350,2012-12-06 04:52:00